Weather History for Worland, WY

Change the Weather History Date:

Sunday, May 5, 2013

  Actual Average Record
Temperature  
Mean Temperature 50 °F 52 °F  
Max Temperature 64 °F 66 °F 91 °F (1966)
Min Temperature 35 °F 37 °F 23 °F (2010)
Degree Days  
Heating Degree Days 15 13  
Month to date heating degree days 97 70  
Since 1 July heating degree days 7276 7537  
Cooling Degree Days 0 0  
Month to date cooling degree days 0 0  
Year to date cooling degree days 0 1  
Moisture  
Dew Point 36 °F    
Average Humidity 65    
Maximum Humidity 100    
Minimum Humidity 30    
Precipitation  
Precipitation 0.00 in 0.04 in 2.12 in (1993)
Month to date precipitation 0.42 0.21  
Year to date precipitation 1.99 1.95  
Sea Level Pressure  
Sea Level Pressure 30.11 in    
Wind  
Wind Speed 4 mph (South)    
Max Wind Speed 12 mph    
Max Gust Speed 15 mph    
Visibility 10 miles    
Events      
T = Trace of Precipitation, MM = Missing Value Source: NWS Daily Summary

Daily Weather History Graph

Daily Weather History Graph

Search for Another Location

Airport:

Trip Planner

Search our weather history database for the weather conditions in past years. The results will help you decide how hot, cold, wet, or windy it might be!

Date:

Astronomy

May. 05, 2013 Rise Set
Actual Time 5:57 AM MDT 8:20 PM MDT
Civil Twilight 5:25 AM MDT 8:52 PM MDT
Nautical Twilight 4:45 AM MDT 9:32 PM MDT
Astronomical Twilight 4:00 AM MDT 10:17 PM MDT
Moon 3:38 AM MDT (5/5) 4:15 PM MDT (5/5)
Length of Visible Light 15h 26m
Length of Day
14h 22m
Waning Crescent, 17% of the Moon is Illuminated
May 5
Waning Crescent
May 9
New
May 17
First Quarter
May 24
Full
May 31
Last Quarter

Hourly Weather History & Observations

Time (MDT) Temp. Windchill Dew Point Humidity Pressure Visibility Wind Dir Wind Speed Gust Speed Precip Events Conditions
12:53 AM 39.9 °F 36.7 °F 37.9 °F 93% 30.20 in 10.0 mi South 4.6 mph - N/A   Clear
1:53 AM 39.9 °F 35.8 °F 37.9 °F 93% 30.19 in 10.0 mi South 5.8 mph - N/A   Clear
2:53 AM 37.9 °F 35.5 °F 37.0 °F 97% 30.21 in 10.0 mi South 3.5 mph - N/A   Clear
3:53 AM 37.9 °F 35.5 °F 37.0 °F 97% 30.20 in 10.0 mi SSE 3.5 mph - N/A   Clear
4:53 AM 37.9 °F 35.5 °F 37.0 °F 97% 30.19 in 10.0 mi SSE 3.5 mph - N/A   Clear
5:53 AM 36.0 °F 33.3 °F 35.1 °F 97% 30.19 in 7.0 mi SW 3.5 mph - N/A   Clear
6:53 AM 37.9 °F 32.7 °F 37.0 °F 97% 30.20 in 10.0 mi South 6.9 mph - N/A   Clear
7:53 AM 42.1 °F 39.2 °F 39.0 °F 89% 30.20 in 10.0 mi SW 4.6 mph - N/A   Partly Cloudy
8:53 AM 45.0 °F - 42.1 °F 90% 30.21 in 10.0 mi Calm Calm - N/A   Partly Cloudy
9:53 AM 48.9 °F - 42.1 °F 77% 30.19 in 10.0 mi Calm Calm - N/A   Clear
10:53 AM 51.1 °F - 39.0 °F 63% 30.16 in 10.0 mi Calm Calm - N/A   Partly Cloudy
12:53 PM 57.0 °F - 35.1 °F 44% 30.12 in 10.0 mi SW 8.1 mph - N/A   Mostly Cloudy
1:53 PM 59.0 °F - 33.1 °F 38% 30.09 in 10.0 mi SSW 4.6 mph - N/A   Partly Cloudy
2:53 PM 60.1 °F - 33.1 °F 36% 30.08 in 10.0 mi Calm Calm - N/A   Mostly Cloudy
3:53 PM 63.0 °F - 32.0 °F 31% 30.05 in 10.0 mi West 5.8 mph - N/A   Scattered Clouds
4:53 PM 62.1 °F - 32.0 °F 32% 30.04 in 10.0 mi Calm Calm - N/A   Mostly Cloudy
5:53 PM 62.1 °F - 30.9 °F 31% 30.04 in 10.0 mi Calm Calm - N/A   Mostly Cloudy
6:53 PM 62.1 °F - 30.0 °F 30% 30.01 in 10.0 mi Calm Calm - N/A   Scattered Clouds
7:53 PM 60.1 °F - 37.0 °F 42% 30.01 in 10.0 mi Calm Calm - N/A   Mostly Cloudy
8:53 PM 53.1 °F - 42.1 °F 66% 30.03 in 10.0 mi ESE 5.8 mph - N/A   Overcast
9:53 PM 50.0 °F - 37.9 °F 63% 30.02 in 10.0 mi ESE 3.5 mph - N/A   Partly Cloudy
10:53 PM 51.1 °F - 35.1 °F 54% 30.01 in 10.0 mi SE 10.4 mph - N/A   Clear
11:53 PM 50.0 °F - 35.1 °F 57% 29.99 in 10.0 mi ESE 10.4 mph - N/A   Clear